Worland, WY

3:09 PM MST on February 25, 2017 (GMT -0700)
Worland Municipal

Weather History for KWRL - November, 2013

Change the Weather History Date:

Saturday, November 9, 2013

  Actual Average Record
Temperature  
Mean Temperature 39 °F 35 °F  
Max Temperature 50 °F 49 °F 67 °F (1964)
Min Temperature 27 °F 21 °F -11 °F (1966)
Degree Days  
Heating Degree Days 26 30  
Month to date heating degree days 252 254  
Since 1 July heating degree days 1085 1116  
Cooling Degree Days 0 0  
Month to date cooling degree days 0 0  
Year to date cooling degree days 852 535  
Moisture  
Dew Point 25 °F    
Average Humidity 59    
Maximum Humidity 85    
Minimum Humidity 33    
Precipitation  
Precipitation 0.00 in 0.02 in 0.47 in (1992)
Month to date precipitation T 0.12  
Year to date precipitation 7.62 7.11  
Sea Level Pressure  
Sea Level Pressure 30.19 in    
Wind  
Wind Speed 4 mph (WSW)    
Max Wind Speed 9 mph    
Max Gust Speed 12 mph    
Visibility 10 miles    
Events      
T = Trace of Precipitation, MM = Missing Value Source: NWS Daily Summary

Daily Weather History Graph

Daily Weather History Graph

Search for Another Location

Airport or City:

Trip Planner

Search our weather history database for the weather conditions in past years. The results will help you decide how hot, cold, wet, or windy it might be!

Date:

Astronomy

Nov. 09, 2013 Rise Set
Actual Time 6:59 AM MST 4:51 PM MST
Civil Twilight 6:28 AM MST 5:22 PM MST
Nautical Twilight 5:53 AM MST 5:56 PM MST
Astronomical Twilight 5:20 AM MST 6:30 PM MST
Moon 12:35 PM MST (11/9) 11:28 PM MST (11/9)
Length of Visible Light 10h 53m
Length of Day
9h 52m
Waxing Crescent, 45% of the Moon is Illuminated
Nov 9
Waxing Crescent
Nov 9
First Quarter
Nov 17
Full
Nov 25
Last Quarter
Dec 2
New

Hourly Weather History & Observations

Time (MST) Temp. Windchill Dew Point Humidity Pressure Visibility Wind Dir Wind Speed Gust Speed Precip Events Conditions
12:53 AM 35.1 °F - 27.0 °F 72% 30.04 in 10.0 mi Calm Calm - N/A   Overcast
1:53 AM 30.9 °F 24.3 °F 25.0 °F 79% 30.06 in 10.0 mi SSW 6.9 mph - N/A   Partly Cloudy
2:53 AM 30.9 °F 23.5 °F 27.0 °F 85% 30.08 in 10.0 mi SSW 8.1 mph - N/A   Scattered Clouds
3:53 AM 30.9 °F 26.2 °F 26.1 °F 82% 30.10 in 10.0 mi SSW 4.6 mph - N/A   Partly Cloudy
4:53 AM 32.0 °F 25.6 °F 27.0 °F 82% 30.14 in 10.0 mi South 6.9 mph - N/A   Overcast
5:53 AM 32.0 °F 27.5 °F 28.0 °F 85% 30.18 in 10.0 mi NE 4.6 mph - N/A   Overcast
6:53 AM 33.1 °F 27.7 °F 28.0 °F 82% 30.19 in 10.0 mi South 5.8 mph - N/A   Overcast
7:53 AM 35.1 °F - 28.9 °F 78% 30.24 in 10.0 mi Calm Calm - N/A   Overcast
8:53 AM 37.0 °F 34.5 °F 30.0 °F 76% 30.23 in 10.0 mi SSW 3.5 mph - N/A   Overcast
9:53 AM 42.1 °F 38.4 °F 26.1 °F 53% 30.22 in 10.0 mi NW 5.8 mph - N/A   Overcast
10:53 AM 45.0 °F 41.2 °F 23.0 °F 42% 30.23 in 10.0 mi North 6.9 mph - N/A   Overcast
11:53 AM 46.9 °F - 23.0 °F 39% 30.21 in 10.0 mi NNE 3.5 mph - N/A   Overcast
12:53 PM 48.9 °F - 24.1 °F 38% 30.19 in 10.0 mi NNE 4.6 mph - N/A   Overcast
1:53 PM 50.0 °F - 23.0 °F 35% 30.19 in 10.0 mi North 5.8 mph - N/A   Clear
2:53 PM 50.0 °F - 24.1 °F 36% 30.18 in 10.0 mi Calm Calm - N/A   Clear
3:53 PM 50.0 °F - 25.0 °F 38% 30.17 in 10.0 mi NNW 4.6 mph - N/A   Clear
4:53 PM 43.0 °F 41.3 °F 26.1 °F 51% 30.20 in 10.0 mi NNW 3.5 mph - N/A   Clear
5:53 PM 33.1 °F - 25.0 °F 72% 30.25 in 10.0 mi Calm Calm - N/A   Clear
6:53 PM 33.1 °F 28.7 °F 24.1 °F 70% 30.25 in 10.0 mi SSW 4.6 mph - N/A   Clear
7:53 PM 34.0 °F 28.0 °F 25.0 °F 70% 30.25 in 10.0 mi SSW 6.9 mph - N/A   Clear
8:53 PM 30.0 °F - 24.1 °F 79% 30.25 in 10.0 mi Calm Calm - N/A   Clear
9:53 PM 30.9 °F 27.5 °F 24.1 °F 76% 30.23 in 10.0 mi West 3.5 mph - N/A   Clear
10:53 PM 28.0 °F - 23.0 °F 81% 30.23 in 10.0 mi Calm Calm - N/A   Clear
11:53 PM 28.9 °F 21.1 °F 25.0 °F 85% 30.23 in 10.0 mi South 8.1 mph - N/A   Clear